Theta_e
289 288 287 287 288 288 286 286 287 287 287 286 286 285 285 284 284 283 283 283 282 282 282 282 282 282 282 281 282 281 280 280 281 277 279 279 278 278 279 280 280 280 281
287 288 287 287 286 285 286 286 286 286 286 286 285 285 284 283 283 283 282 282 282 281 281 280 280 279 280 280 280 280 280 279 279 278 276 276 277 278 278 278 278 279 280
286 286 286 286 285 285 285 286 285 285 285 285 284 284 283 283 283 283 283 282 281 281 281 280 280 279 279 279 279 279 279 278 278 276 276 276 276 277 277 278 278 279 280
286 285 285 285 286 286 286 286 285 285 285 284 284 284 283 283 282 282 282 282 281 281 281 280 280 279 279 278 278 278 277 276 276 275 274 274 275 276 277 277 277 279 278
285 284 284 285 285 285 285 285 285 284 284 284 283 283 283 282 282 281 281 281 280 280 280 279 280 279 281 280 278 277 276 275 275 274 273 274 275 275 275 277 276 277 278
283 284 284 284 284 283 284 284 283 283 282 283 282 282 282 282 285 286 283 281 280 280 278 278 279 278 280 282 281 280 278 274 273 274 274 273 274 276 276 276 275 275 274
281 283 283 283 282 282 283 282 282 282 282 281 282 282 282 282 286 287 286 281 280 280 279 278 277 277 278 279 282 281 280 280 278 276 274 275 276 276 277 275 275 275 275
279 280 280 279 280 281 281 281 281 281 281 281 281 282 281 282 285 287 286 282 280 279 279 278 277 276 277 278 279 279 278 278 278 277 277 277 278 278 277 278 277 275 274
277 277 277 276 278 280 279 279 280 280 280 281 282 281 281 281 285 286 286 283 279 279 278 278 278 276 278 281 278 277 277 277 281 282 281 280 280 280 280 277 273 271 269
275 275 275 275 276 274 276 278 279 279 279 280 279 280 280 280 283 285 286 284 279 278 277 277 279 277 280 281 278 278 276 276 276 278 278 279 281 279 278 276 273 269 269
274 273 273 273 273 274 275 277 278 277 278 277 278 278 279 279 280 284 285 284 279 277 276 275 276 280 281 282 280 277 277 277 277 276 275 275 274 273 273 273 273 272 269
271 271 270 269 270 271 271 273 277 276 276 276 277 277 277 278 279 282 284 287 282 277 276 276 276 280 281 282 280 278 279 278 276 274 272 272 271 271 271 272 273 273 273
267 267 267 267 268 268 269 270 272 276 274 275 275 275 275 275 276 281 282 285 283 277 277 277 278 281 282 282 282 279 278 275 272 270 270 271 271 271 271 271 271 271 271
264 265 265 265 266 266 268 269 271 275 275 274 275 274 275 274 274 276 278 281 282 280 278 277 278 280 281 280 280 280 275 273 272 271 270 270 270 269 269 269 268 269 268
263 263 263 264 264 264 266 268 270 273 276 275 275 276 275 273 274 277 277 279 280 279 276 276 276 277 276 276 277 273 272 270 270 269 268 268 268 268 268 268 268 267 265
260 261 261 262 262 263 264 265 271 274 277 280 281 280 277 279 279 279 280 281 283 280 275 274 274 275 274 274 270 269 269 268 268 268 267 267 267 267 267 267 267 265 264
258 259 259 260 260 261 262 263 263 268 274 278 280 281 282 280 280 280 281 282 284 280 273 274 274 274 271 271 269 268 267 268 268 267 267 266 266 265 265 265 265 265 264
258 258 258 259 259 260 261 262 264 264 266 271 277 278 281 282 282 280 280 282 280 278 274 274 272 271 269 269 268 267 267 266 266 266 265 265 264 264 263 263 263 262 263
258 258 258 259 260 260 261 262 262 263 265 268 272 275 277 282 282 280 281 278 278 276 273 271 270 270 269 269 268 267 266 265 265 264 263 262 261 261 261 261 262 262 262
259 259 260 260 260 260 261 261 262 263 265 268 270 272 274 276 278 276 277 277 278 274 271 270 269 269 268 266 265 264 263 262 261 260 260 260 260 260 261 260 261 262 262
259 259 260 260 260 260 260 261 263 265 266 269 270 272 275 275 275 275 276 277 270 270 268 266 266 265 264 263 262 261 260 260 260 260 259 259 259 258 259 261 261 260 261
260 260 260 261 262 263 263 263 264 266 269 269 269 271 276 276 274 272 268 266 267 266 265 263 262 261 261 261 261 260 260 259 259 259 259 258 257 258 258 259 259 260 261
261 261 261 263 265 266 267 267 268 268 268 269 270 267 266 264 263 262 261 261 261 262 262 261 260 258 259 259 260 260 259 258 258 257 257 257 256 257 256 257 258 259 260
260 260 261 262 263 263 264 264 265 265 264 263 262 262 261 261 260 259 259 258 258 259 260 259 259 257 256 256 256 256 257 256 255 255 255 254 255 255 256 256 258 259 262
259 259 260 260 260 261 261 261 261 260 260 260 260 259 259 259 258 258 258 258 258 258 257 257 257 256 256 255 254 254 253 257 253 253 252 252 253 254 254 256 258 261 261
258 258 258 259 259 259 259 259 259 259 259 259 259 259 258 258 258 258 257 257 256 256 255 255 255 255 255 255 254 255 255 256 255 255 253 253 254 255 256 259 261 261 260
Wind_Speed
14 12 10 8 7 7 8 10 11 10 11 13 15 16 17 17 17 16 15 14 17 14 12 14 13 12 9 8 7 6 6 4 4 3 3 5 7 7 5 4 4 5 5
12 12 12 11 9 7 10 11 11 12 12 13 13 14 15 17 17 20 19 17 18 17 16 15 15 10 12 11 9 11 9 9 5 7 5 6 6 4 5 5 4 4 6
14 12 12 12 10 11 12 10 10 11 12 12 14 16 16 17 18 19 19 18 19 20 18 18 17 16 15 12 12 10 9 7 6 4 4 3 2 2 2 3 5 6 7
14 12 12 13 13 11 11 11 10 11 12 12 14 16 17 17 18 18 18 18 18 17 18 18 18 20 19 18 14 14 11 10 8 7 5 4 4 4 5 5 4 4 8
14 13 14 11 12 11 10 11 12 9 11 12 13 14 15 16 14 18 18 18 18 17 16 17 18 20 26 22 14 15 15 11 10 8 7 6 5 5 7 3 5 6 10
11 12 12 12 13 14 13 12 9 9 9 10 12 14 16 13 23 29 23 19 19 18 17 16 15 18 22 29 26 26 22 18 14 9 9 9 11 8 7 8 7 5 4
11 10 10 11 14 14 14 14 12 9 9 10 13 13 16 17 26 28 30 16 18 19 18 16 14 13 18 17 25 25 24 24 19 14 12 11 11 11 10 10 9 7 7
12 12 12 14 15 14 14 15 13 10 9 11 13 14 15 14 24 27 28 18 17 19 20 20 20 19 21 19 18 16 15 16 16 11 11 9 9 9 10 8 6 3 6
9 10 13 16 15 15 15 16 15 12 11 11 11 12 14 14 23 26 24 19 15 18 17 18 19 19 27 31 19 17 15 13 18 21 16 14 15 15 13 6 4 3 2
10 12 11 13 12 16 16 15 13 12 13 10 11 11 14 14 21 25 25 14 15 13 13 16 27 21 33 35 19 18 16 14 13 11 10 13 14 7 9 7 4 4 3
9 12 12 12 13 14 16 16 14 12 12 12 12 11 12 12 13 23 30 17 12 12 12 12 13 29 33 35 25 15 15 13 16 9 7 5 6 6 6 6 7 6 6
10 12 14 13 12 12 15 16 15 12 13 13 11 10 10 9 15 22 31 32 22 14 13 10 12 31 32 34 26 24 22 18 9 8 7 6 7 7 6 6 6 5 5
10 14 15 15 14 13 13 15 14 12 10 11 9 9 9 7 9 25 28 31 27 13 10 16 24 32 31 30 30 26 23 10 9 7 7 7 6 5 5 4 4 4 6
15 18 16 16 16 15 11 11 12 12 11 10 10 11 9 8 9 8 10 14 23 17 17 13 18 22 23 18 19 20 10 10 10 8 8 7 5 5 5 4 3 2 3
16 18 18 14 15 14 13 12 12 14 14 11 11 10 10 10 11 15 15 11 11 14 14 10 11 13 14 13 11 11 10 11 10 8 8 7 6 6 4 3 3 2 3
19 16 14 13 13 13 13 15 22 28 32 31 30 23 10 21 18 24 23 27 23 29 13 13 12 13 12 13 11 10 9 10 7 8 7 7 7 5 4 3 3 3 4
18 18 14 15 13 13 13 13 15 15 26 29 28 28 29 18 22 22 25 28 26 29 13 13 14 12 12 12 11 10 8 8 10 8 8 8 7 6 5 4 3 3 4
18 22 15 14 13 13 13 13 12 13 13 11 16 21 24 27 23 22 24 24 14 22 12 12 12 12 12 11 11 11 10 10 8 8 8 8 7 5 4 3 3 4 5
15 13 14 13 13 15 14 13 13 14 13 14 9 13 15 23 23 22 24 11 10 13 10 10 11 11 11 11 11 10 11 11 9 8 7 7 6 5 4 3 4 6 7
15 20 19 13 13 13 12 13 13 13 13 13 8 8 6 9 10 9 10 9 8 9 10 10 9 8 8 10 10 10 9 9 8 7 6 5 5 5 5 4 4 4 6
12 13 18 14 13 13 12 13 12 11 12 8 7 7 15 8 7 8 6 7 8 10 10 10 9 8 8 9 9 8 9 7 7 7 6 5 5 4 4 4 4 5 6
11 11 11 12 12 12 12 11 12 12 9 6 5 5 18 7 5 5 8 8 8 10 9 11 9 8 7 8 9 8 8 8 7 6 6 5 4 4 4 4 4 5 6
10 11 11 11 10 11 7 7 6 4 4 4 3 2 5 6 9 8 9 8 8 9 9 10 10 8 7 7 6 6 7 7 6 6 6 5 4 4 4 4 5 6 6
9 10 9 8 7 7 6 6 5 7 6 6 6 6 7 7 9 10 8 8 9 9 9 10 9 11 9 7 5 3 3 4 5 5 6 4 4 4 4 5 6 8 9
9 9 8 8 8 8 7 7 8 8 8 7 7 7 8 8 10 10 9 9 9 10 11 9 7 10 10 10 8 7 6 7 6 6 4 5 5 6 6 6 8 8 9
9 9 9 8 9 8 8 8 8 8 8 7 8 8 8 9 9 9 9 9 9 9 10 6 8 9 9 6 5 6 7 7 7 9 6 6 6 6 7 10 11 7 8
Wind_Direction
2 347 311 281 249 235 227 221 215 202 200 198 197 200 199 195 192 192 200 193 198 193 187 187 189 178 183 177 175 172 175 169 176 143 186 181 208 216 214 256 262 267 275
352 347 350 331 297 259 245 238 219 213 206 204 201 205 203 201 196 196 195 193 198 196 192 185 186 176 183 178 179 182 183 181 161 183 174 193 204 223 254 268 252 267 279
349 347 348 351 335 303 276 256 232 223 216 212 207 204 203 203 204 206 203 201 200 196 193 188 187 179 184 180 182 182 177 173 177 163 200 225 225 277 302 294 295 294 285
340 342 344 346 342 330 307 280 252 228 223 217 221 219 211 202 203 205 204 203 203 206 194 191 186 188 188 182 180 179 173 168 178 185 193 215 246 261 261 289 296 278 286
335 336 337 336 332 330 323 300 281 252 237 222 222 226 226 214 202 200 200 202 205 206 204 196 192 191 194 186 176 176 171 173 172 181 193 193 194 193 214 202 245 277 273
323 326 327 330 337 333 326 319 289 264 246 235 229 225 228 231 222 209 198 196 199 203 205 200 191 190 193 190 190 183 179 172 177 172 192 202 204 198 197 213 223 231 258
326 322 319 330 328 327 323 315 310 292 272 251 244 233 233 232 229 220 207 204 199 198 198 197 188 191 191 188 194 190 195 192 182 175 183 192 199 194 195 209 211 216 243
318 326 329 331 323 322 321 317 312 298 271 257 250 239 237 239 229 224 214 209 207 203 199 193 189 186 189 180 180 186 190 195 187 186 193 198 207 182 211 210 219 227 268
308 315 322 328 315 322 316 311 309 297 281 261 252 247 243 241 236 226 212 216 210 207 200 197 194 187 187 182 179 179 186 190 198 198 190 194 214 212 212 193 213 199 248
306 312 308 308 307 306 303 297 294 293 284 272 259 248 241 244 238 231 218 213 215 206 206 195 197 187 184 184 181 178 183 183 178 190 201 201 219 222 227 234 208 192 177
298 302 300 302 296 297 299 299 291 290 285 273 266 259 244 230 236 234 228 220 202 208 201 192 190 193 187 186 179 180 182 163 179 180 179 170 190 216 220 208 201 189 192
291 294 297 295 292 292 290 293 289 277 274 271 266 264 256 228 230 231 234 221 205 199 198 196 186 193 189 185 176 181 177 164 164 166 171 182 214 218 215 205 197 213 231
292 294 294 294 290 287 285 287 288 275 261 265 254 253 251 236 215 234 241 232 204 194 195 193 187 190 189 185 178 177 179 153 150 161 174 194 206 205 206 221 224 249 257
292 293 294 290 290 288 280 276 274 269 264 257 253 249 247 232 226 207 234 243 199 192 187 184 188 181 182 180 177 179 153 151 158 166 171 176 181 200 212 208 220 251 283
289 290 291 285 282 282 274 275 273 273 258 258 254 249 242 233 227 212 209 226 183 174 161 171 187 178 178 174 174 150 148 149 153 157 152 177 186 200 207 202 225 245 243
290 289 286 287 285 281 281 284 271 273 274 261 256 252 242 245 246 226 216 218 198 173 166 168 184 185 179 167 151 141 141 140 150 142 168 180 184 188 202 209 228 243 263
285 287 285 282 279 278 277 277 287 287 282 274 260 264 250 237 232 228 222 216 198 176 184 180 179 178 165 161 155 155 152 157 146 161 171 174 173 184 186 217 247 272 282
280 280 278 276 274 272 270 271 272 278 283 267 257 259 262 241 221 217 222 216 198 186 184 182 171 160 156 157 158 157 148 144 156 172 175 169 171 176 181 214 250 272 288
281 276 273 271 269 270 270 271 271 270 270 276 258 259 268 241 232 202 214 222 202 184 172 169 160 164 166 157 158 153 147 151 155 163 167 169 158 171 195 214 244 265 283
277 273 269 271 271 269 266 263 260 260 263 260 246 248 241 237 221 183 206 208 212 162 152 154 149 152 152 145 139 139 134 135 144 154 168 171 172 185 186 209 231 267 278
280 277 271 270 266 263 260 258 258 257 258 245 243 235 234 233 197 180 191 187 137 143 135 125 127 131 131 129 130 131 131 140 153 162 164 177 179 192 209 226 244 255 267
280 278 278 274 272 263 254 245 253 254 250 248 249 236 250 234 158 120 96 102 115 118 120 121 124 120 129 134 132 137 146 155 158 169 170 171 189 208 221 237 254 270 270
301 299 296 294 291 292 290 245 249 245 245 251 256 51 71 83 92 92 99 102 101 106 108 113 116 110 104 101 112 140 154 160 168 162 169 183 203 218 215 247 252 259 269
319 320 324 328 337 352 1 9 18 40 63 65 66 67 72 78 91 91 92 97 99 98 100 102 109 117 115 119 131 149 136 132 141 171 175 188 215 225 235 243 249 250 255
342 343 348 351 356 2 14 25 35 40 47 53 61 69 77 85 91 94 96 96 97 98 93 99 104 124 134 145 160 173 178 184 177 181 181 205 232 232 238 245 252 252 259
358 4 5 5 8 12 18 26 33 40 48 53 62 70 78 84 86 91 93 95 95 94 102 104 120 127 135 143 161 184 197 203 202 207 194 207 227 240 235 238 245 255 258